Regional Weather Roundup
Issued by NWS

Home | Current Version | Previous Version | Graphics & Text | Print | Product List | Glossary On
Versions: 1 2 3 4 5 6 7 8 9 10 11 12 13 14 15 16 17 18 19 20 21 22 23 24 25 26 27 28 29 30 31 32 33 34 35 36 37 38 39 40 41 42 43 44 45 46 47 48 49 50
834
ASUS45 KTFX 181310
RWRMT
MONTANA REGIONAL WEATHER ROUNDUP
NATIONAL WEATHER SERVICE GREAT FALLS MT
600 AM MST SAT NOV 18 2017

NOTE: "FAIR" INDICATES FEW OR NO CLOUDS BELOW 12000 FEET WITH NO
SIGNIFICANT WEATHER AND/OR OBSTRUCTIONS TO VISIBILITY.

MTZ001>007-043-181400-
WEST OF THE DIVIDE

CITY           SKY/WX    TMP DP  RH WIND       PRES   REMARKS
KALISPELL      CLOUDY    36  25  64 S6        30.22R WCI  31
MISSOULA       CLOUDY    35  24  64 NW6       30.27R WCI  30
BUTTE          CLOUDY    17   9  70 SE3       30.23R
MULLAN PASS    CLOUDY    22  20  92 SW10G20   30.17R WCI  11
ANACONDA         N/A     27  14  59 S12       30.22R WCI  16
DEER LODGE       N/A     27  16  63 SE6       30.23S WCI  20
EUREKA           N/A     37  21  52 MISG      30.22R
HAMILTON         N/A     37  18  44 SE3       30.28R
LIBBY            N/A     32  27  80 CALM      30.23R
RONAN            N/A     36  23  59 E2        30.27R
$$

MTZ008-052>055-181400-
SOUTHWEST MONTANA

CITY           SKY/WX    TMP DP  RH WIND       PRES   REMARKS
BOZEMAN        MOCLDY    24  14  65 S5        30.24R
DILLON         FAIR      25  10  53 SW15      30.25R WCI  13
W YELLOWSTONE  CLOUDY    18  16  93 S7G15     30.26S WCI   8
ENNIS          CLOUDY    25  10  54 S9G16     30.30R WCI  15
$$

MTZ009-010-012-014-046-048-049-054-181400-
EAST SLOPES AND CENTRAL MONTANA

CITY           SKY/WX    TMP DP  RH WIND       PRES   REMARKS
CUT BANK       FAIR      30  22  72 SW14      30.04R WCI  19
GREAT FALLS    FAIR      36  18  48 SW26G37   30.07R WCI  24
MALMSTROM AFB  MOCLDY    36  19  51 SW25      30.09R WCI  24
HELENA         CLOUDY    36  16  44 S3        30.20R
BOWMANS CRNR   MOCLDY    29  22  73 SW22G30   30.09R WCI  16
CHOTEAU          N/A     34  18  51 SW16      30.08R WCI  23
FAIRFIELD      CLOUDY    35  18  51 SW14      30.07R WCI  25
POWER          MOCLDY    33  19  55 SW20      30.06R WCI  22
RAYNESFORD     MOCLDY    36  17  45 W28G40    30.08R WCI  23
ULM            CLOUDY    36  19  49 SW26G32   30.10R WCI  24
$$

MTZ011-013-016-021-045-047-050-051-181400-
NORTH CENTRAL MONTANA

CITY           SKY/WX    TMP DP  RH WIND       PRES   REMARKS
HAVRE          CLOUDY    14  10  84 CALM      30.08R
LEWISTOWN      FAIR      30  19  63 W13       30.06R WCI  20
N BAR RANCH    FAIR      28  16  59 NW9       30.07S WCI  20
CHINOOK          N/A     10   7  85 CALM      30.10S
DENTON         FAIR      32  20  61 MISG      30.02R
GEYSER         MOCLDY    32  19  60 W15       30.06R WCI  21
GRASS RANGE    FAIR      27  18  67 W13       30.03R WCI  17
STANFORD       MOCLDY    33  17  52 W21G30    30.03F WCI  21
WINIFRED       MOCLDY    32  20  62 W12       30.04R WCI  23
$$

MTZ017>020-022>027-061-062-181400-
NORTHEAST MONTANA

CITY           SKY/WX    TMP DP  RH WIND       PRES   REMARKS
GLASGOW        FAIR       9   6  88 SW5       30.10R
GLENDIVE       FAIR      13   7  77 CALM      30.11R
JORDAN           N/A     20  16  84 CALM      30.08R
SIDNEY         FAIR       9   6  88 S6        30.12  WCI  -1
WOLF POINT     FAIR      11   6  81 W7        30.13R WCI   0
MALTA          CLOUDY    14  12  92 W5        30.11R
PLENTYWOOD       N/A      9   5  85 CALM      30.06R
POPLAR           N/A     10   5  79 CALM      30.13R
SCOBEY           N/A      6  -5  60 N1        30.04R
$$

MTZ028>42-056>058-181400-
SOUTHCENTRAL AND SOUTHEAST MONTANA

CITY           SKY/WX    TMP DP  RH WIND       PRES   REMARKS
BAKER          FAIR      18  16  92 NW6       30.07R WCI  10
BILLINGS       FAIR      36  14  40 W25G32    30.11F WCI  24
LIVINGSTON     FAIR      31  12  45 W28G38    30.16S WCI  17
MILES CITY     CLOUDY    24  22  91 NW6       30.08F WCI  17
BIG TIMBER     PTCLDY    30  12  47 W32G45    30.14R WCI  15
EKALAKA          N/A     23  16  75 W6        30.01R WCI  16
FORSYTH          N/A     30  19  64 SW7       30.09S WCI  23
HARLOWTON      FAIR      30  17  58 W29G40    30.07S WCI  15
LAUREL           N/A     32  14  47 W12       30.13S WCI  23
ROUNDUP          N/A     34  13  42 SW16      30.00R WCI  24
$$

REGIONAL REPORTS...DAKOTAS

CITY           SKY/WX    TMP DP  RH WIND       PRES   REMARKS
WILLISTON      FAIR      12   7  80 W9        30.09R WCI   0
MINOT          FLURRIES  16  10  77 NW22G28   30.02R WCI  -2
DICKINSON      FAIR      12   8  84 NW13      30.02R WCI  -3
BEACH          FAIR      10   7  85 W5        30.10S
CROSBY         MOCLDY     9   5  85 W5        30.06R
TIOGA          CLOUDY    10   9  92 W10       30.05R WCI  -3
WATFORD CITY   CLOUDY    12   9  85 W12G17    30.07S WCI  -2
BISMARCK       FAIR      20  14  77 NW10      30.05R WCI   9
GRAND FORKS    MOCLDY    17  11  77 NW9       29.95R WCI   6
FARGO          CLOUDY    21  15  78 NW14      29.93R WCI   8
BUFFALO SD       N/A     26  21  81 NW9       29.98R WCI  17
RAPID CITY     FAIR      34  19  54 NW17      30.07R WCI  23
$$

REGIONAL REPORTS...WYOMING/IDAHO/WASHINGTON

CITY           SKY/WX    TMP DP  RH WIND       PRES   REMARKS
GILLETTE       FAIR      24  15  68 W12       30.11R WCI  13
SHERIDAN       FAIR      28  15  58 W12       30.13R WCI  18
BUFFALO WY     FAIR      26   6  42 VRB7      30.12R WCI  18
CODY           FAIR      31  11  43 W13G39    30.14R WCI  21
YELLOWSTONE LA   N/A     -1  -4  87 NW3       30.26R
IDAHO FALLS    FAIR      25  22  88 S13       30.36S WCI  14
SALMON         FAIR      29  17  61 SW8       30.35R WCI  21
BOISE          FAIR      30  23  75 SE12      30.39R WCI  20
SPOKANE        CLOUDY    33  32  96 S10       30.28R WCI  25
$$

REGIONAL REPORTS...ALBERTA

CITY           SKY/WX    TMP DP  RH WIND       PRES   REMARKS
EDMONTON       CLEAR     10   5  79 SW7       29.87F WCI   0
CALGARY        PTCLDY    30  12  47 W12G17    29.91S WCI  21
LETHBRIDGE     CLEAR     32  23  69 W26G36    29.98R WCI  18
MEDICINE HAT   CLEAR      9   5  85 SW12      30.02F WCI  -6
$$

REGIONAL REPORTS...SASKATCHEWAN

CITY           SKY/WX    TMP DP  RH WIND       PRES   REMARKS
SWIFT CURRENT  CLEAR      7   1  78 W10       29.99R WCI  -8
REGINA         PTCLDY    -2  -6  84 NW5       30.03R
SASKATOON      PTCLDY    -9 -15  77 W9        30.04F WCI -27
$$




USA.gov is the U.S. government's official web portal to all federal, state and local government web resources and services.